Miscellaneous Local Product
Issued by NWS Hastings, NE

Home | Current Version | Previous Version | Graphics & Text | Print | Product List | Glossary On
Versions: 1 2 3 4 5 6 7 8 9 10 11 12 13 14 15 16 17 18 19 20 21 22 23 24 25 26 27 28 29 30 31 32 33 34 35 36 37 38 39 40 41 42 43 44 45 46 47 48 49 50
000
AXUS43 KGID 060702
MISGRI

GID CWA HOURLY WEATHER ROUNDUP
NATIONAL WEATHER SERVICE HASTINGS NE
200 AM CDT MON JUL 06 2015

NOTE: "FAIR" INDICATES FEW OR NO CLOUDS BELOW 12,000 FEET WITH NO
SIGNIFICANT WEATHER AND/OR OBSTRUCTIONS TO VISIBILITY.

...SOUTH CENTRAL NEBRASKA...

CITY           SKY/WX    TMP DP  RH WIND       PRES   REMARKS
GRAND ISLAND   CLOUDY    80  63  55 NW14      29.86R
HASTINGS       LGT RAIN  83  64  52 W7G17     29.84R
KEARNEY        CLOUDY    72  66  83 NE15      29.88R THUNDER
ORD            LGT RAIN  70  67  90 NW6       29.85S
YORK           CLOUDY    77  68  73 S8        29.81S
AURORA         CLOUDY    79  64  60 CALM      29.83R
LEXINGTON      CLOUDY    73  67  81 N10       29.89R
HOLDREGE       CLOUDY    77  64  65 E8        29.85R
HEBRON         CLOUDY    81  64  57 S10       29.82R

...NEBRASKA PANHANDLE...

CITY           SKY/WX    TMP DP  RH WIND       PRES   REMARKS
CHADRON        RAIN      61  59  93 NE10      30.07R FOG
ALLIANCE       CLOUDY    62  60  93 N15G24    30.04R
SCOTTSBLUFF    CLOUDY    62  60  93 N12G21    30.08R
SIDNEY         CLOUDY    64  61  90 N10       30.04R

...WESTERN AND NORTH CENTRAL NEBRASKA...

CITY           SKY/WX    TMP DP  RH WIND       PRES   REMARKS
VALENTINE      LGT RAIN  65  64  97 NE12      29.97F
AINSWORTH      RAIN      65  65 100 N16       29.95F
ONEILL         RAIN      69  68  97 NW16G24   29.83S
BROKEN BOW     LGT RAIN  70  67  90 NW17G30   29.89F
IMPERIAL       CLOUDY    69  63  81 N15G24    29.95R
NORTH PLATTE   LGT RAIN  68  63  84 N25G40    29.88F
MCCOOK         CLOUDY    76  66  71 N9        29.87R

...EASTERN NEBRASKA...

CITY           SKY/WX    TMP DP  RH WIND       PRES   REMARKS
NORFOLK        CLOUDY    80  71  74 W17G29    29.82R
SO SIOUX CITY  LGT RAIN  81  69  67 S20G28    29.76R
TEKAMAH        CLOUDY    77  71  82 SE12      29.78S
COLUMBUS       CLOUDY    82  70  65 SW8       29.79R
ALBION         CLOUDY    75  64  69 NW15G26   29.84R
OMAHA EPPLEY   CLOUDY    80  76  87 S13       29.79F
OFFUTT AFB     CLOUDY    80  75  85 SE7       29.80F
MILLARD        LGT RAIN  80  75  83 S13       29.79S
LINCOLN        CLOUDY    81  71  71 S14       29.78F
NEBRASKA CITY  CLOUDY    81  69  67 S15G22    29.83F
BEATRICE       CLOUDY    82  70  68 S16       29.83R
FALLS CITY     CLOUDY    82  73  74 S13       29.83F

...NORTHERN KANSAS...

CITY           SKY/WX    TMP DP  RH WIND       PRES   REMARKS
GOODLAND       CLOUDY    68  63  84 N14       29.91R
HILL CITY      CLOUDY    84  63  49 W10       29.86R
NORTON         SUNNY     82  57  42 S10       29.84S
PHILLIPSBURG   CLEAR     86  63  45 SW13      29.84R
SMITH CENTER   CLEAR     82  63  51 S18       29.83S
HAYS           CLOUDY    81  64  57 S20       29.85R
RUSSELL        CLOUDY    81  68  64 S23       29.83R
CONCORDIA      CLOUDY    83  69  62 S24G30    29.84R
SALINA         CLOUDY    85  69  58 S20G28    29.86R
TOPEKA         MOCLDY    82  73  74 S9        29.88R



USA.gov is the U.S. government's official web portal to all federal, state and local government web resources and services.